Вернуться в каталог

HAIYANG 3A

АктивенНаукаSSO
NORAD 58349·PAYLOAD·🇨🇳 China

Запущен Nov 16, 2023 с Jiuquan Satellite Launch Center

Loading…

Ближайшие Пролёты (ближайшие 24 часа)

TLE

СвежийSource: Space-Track

Эпоха: Sep 14, 2026, 14:39 UTC

1 58349U 23176A   26257.61056192  .00000061  00000-0  37255-4 0  9993
2 58349  98.5404 334.5323 0010631 117.0346 243.1925 14.34142723148131

Отслеживайте HAIYANG 3A в реальном времени с AllMySat

Download on the App Store